Location: Tauranga
(37.6860°S, 176.1670°E)
Time: 03:28:41
(UTC+13:00)

USA 186 - Pass Details

Date: 24 January 2019
Orbit: 262 x 443 km, 96.9° (Epoch: 04 October)

Event Time Altitude Azimuth Distance (km) Brightness Sun altitude
Rises 21:24:39 0° 164° (SSE) 2,242 5.7 -9.5°
Reaches altitude 10° 21:26:43 10° 158° (SSE) 1,353 4.5 -9.8°
Maximum altitude 21:29:30 48° 81° (E) 460 1.6 -10.3°
Drops below altitude 10° 21:32:06 10° 4° (N) 1,250 3.8 -10.7°
Enters shadow 21:32:28 - 2° (N) 1,408 4.1 -10.8°
